Location: Beaurecueil
(43.5122°N, 5.5450°E)
Time: 20:08:50
(UTC+00:00)

Cosmos 2263 Rocket - Pass Details

Date: 18 September 2020
Orbit: 822 x 850 km, 71.0° (Epoch: 27 October)

Event Time Altitude Azimuth Distance (km) Brightness Sun altitude
Rises 19:30:25 0° 235° (SW) 3,347 5.8 -20.0°
Reaches altitude 10° 19:33:08 10° 247° (WSW) 2,420 5.2 -20.4°
Maximum altitude 19:37:56 29° 306° (NW) 1,470 4.1 -21.2°
Drops below altitude 10° 19:42:47 10° 7° (N) 2,444 4.8 -22.0°
Sets 19:45:33 0° 18° (NNE) 3,386 5.4 -22.5°
